User: anonymous   Login
Location: Unspecified
(0.0000°N, 0.0000°E)
Time: 07:51:57
(UTC+01:00)
Language:

Cosmos 1437 - Orbit

View from above orbital plane
View from above orbital plane
View from above satellite
View from above satellite

Ground track
Ground track

The orbit data is extracted from the following two-line orbital elements,

1 13770U 83003A   15059.15896894  .00011068  00000-0  30573-3 0  9999
2 13770 081.1619 090.3274 0007672 322.5970 098.7535 15.36899982756804
Epoch (UTC): 28 February 2015 03:48:54
Eccentricity: 0.0007672
inclination: 81.1619°
perigee height: 450 km
apogee height: 460 km
right ascension of ascending node: 90.3274°
argument of perigee: 322.5970°
revolutions per day: 15.36899982
mean anomaly at epoch: 98.7535°
orbit number at epoch: 75680

The dashed part of the orbit path shows where the satellite is in the earth's shadow,  

DLR